[[{"header":{"parameterUnit":"m.s-1","parameterCategory":1,"la1":30.2991,"la2":30.254,"lo1":-89.0895,"lo2":-89.0444,"dy":0.0017,"dx":0.0017,"nx":28,"ny":28,"refTime":"2025-08-15T09:00:00:Z","depth":0,"parameterNumber":2,"parameterNumberName":"U-component_of_WINDS"},"data":[0,0,0,0,0,0,0,0,0,0,0,0,0,0,0,0,0,0,0,0,0,0,0,0,0,0,0,0,0,0,0,0,0,0,0,0,0,0,0,0,0,0,0,0,0,0,0,0,0,0,0,0,0,0,0,0,0,0,1.4937,1.4938,0,1.5041,1.5043,1.5044,1.5077,1.5077,1.5076,1.5076,1.518,1.5183,1.5187,0,0,0,0,0,0,0,0,0,0,0,0,0,1.4761,1.4764,1.4937,1.4938,1.4939,1.5041,1.5043,1.5044,1.5077,1.5077,1.5076,1.5076,1.5179,1.5183,1.5187,0,0,0,0,0,0,0,0,0,0,0,0,0,1.4848,1.4765,1.4936,1.4968,1.4972,1.5041,1.5043,1.5045,1.5077,1.5077,1.5076,1.5075,1.5178,1.5183,1.5187,1.5231,0,0,1.5202,1.5204,0,0,0,0,0,0,0,0,1.4843,1.4855,1.4962,1.4966,1.4971,1.5046,1.5019,1.5107,1.5078,1.5037,1.5076,1.5075,1.5136,1.5144,1.5165,1.5236,1.5241,1.5203,1.5205,1.5208,1.5209,0,0,0,0,0,0,0,1.4837,1.485,1.4978,1.4964,1.4969,1.4976,1.4987,1.5036,1.5089,1.5041,1.5044,1.5056,1.5138,1.516,1.5168,1.5242,1.5202,1.5207,1.521,1.5212,1.5352,1.5353,0,0,0,0,0,0,1.4826,1.4845,1.4975,1.4981,1.4904,1.4979,1.4993,1.5022,1.5089,1.5098,1.5056,1.5057,1.5153,1.5162,1.5172,1.5226,1.5208,1.5212,1.5215,1.5351,1.5352,1.5353,0,0,0,0,0,0,1.4822,1.4838,1.497,1.4914,1.4931,1.4983,1.5016,1.5025,1.5047,1.51,1.511,1.507,1.5152,1.5165,1.5216,1.523,1.5214,1.5219,1.535,1.5351,1.5353,1.5336,0,0,0,0,0,0,1.4817,1.4836,1.4854,1.4914,1.4934,1.5014,1.5017,1.5027,1.5056,1.5058,1.5116,1.5124,1.5153,1.5208,1.5221,1.5236,1.5222,1.5349,1.5351,1.5352,1.5335,1.5336,1.5337,0,0,0,0,0,1.4811,1.4845,1.4855,1.4871,1.4959,1.5015,1.5026,1.5059,1.5057,1.5075,1.5109,1.5123,1.5227,1.5213,1.5227,1.5245,1.5348,1.535,1.5352,1.5335,1.5336,1.5337,0,0,0,0,0,0,1.4785,1.4854,1.4866,1.4921,1.4962,1.5021,1.5045,1.506,1.5102,1.5102,1.514,1.5152,1.52,1.5228,1.5212,1.529,1.5288,1.5293,1.527,1.5272,1.5273,1.5265,1.5226,0,0,0,0,0,1.4786,1.4828,1.4885,1.4928,1.4948,1.4993,1.5018,1.504,1.5084,1.5101,1.5139,1.518,1.5221,1.5248,1.529,1.5339,1.5351,1.5358,1.5359,1.5359,1.5363,1.5389,1.5392,1.5359,1.5359,1.5359,0,0,1.4788,1.4831,1.4855,1.4924,1.4958,1.4998,1.5007,1.505,1.508,1.5107,1.5158,1.5186,1.5234,1.5284,1.5308,1.5309,1.5375,1.5362,1.5362,1.5365,1.5391,1.5394,1.5397,1.536,1.536,1.536,0,0,1.4813,1.485,1.4889,1.4923,1.4975,1.5004,1.5014,1.507,1.509,1.5141,1.5162,1.5197,1.5269,1.5302,1.5328,1.5362,1.5376,1.5375,1.5379,1.5405,1.5407,1.541,1.542,1.5424,1.5378,1.5378,1.5378,0,1.4809,1.4872,1.4907,1.4948,1.4977,1.5004,1.5043,1.5074,1.5137,1.5155,1.5155,1.5244,1.5278,1.5335,1.5344,1.5364,1.5375,1.5368,1.5404,1.5407,1.541,1.542,1.5425,1.5377,1.5377,1.5378,1.5378,0,1.4863,1.4906,1.4931,1.4991,1.5023,1.5063,1.5102,1.5129,1.5148,1.5176,1.5227,1.5269,1.5318,1.5333,1.5352,1.5392,1.5391,1.5397,1.5396,1.5412,1.5422,1.5427,1.5377,1.5377,1.5377,1.5377,0,0,1.4875,1.4953,1.4962,1.4988,1.5047,1.508,1.512,1.5169,1.5191,1.5233,1.5266,1.5325,1.533,1.536,1.5382,1.5404,1.5426,1.5407,1.5409,1.5408,1.5472,1.5466,1.547,1.5436,1.5437,1.5437,1.5467,0,1.4906,1.498,1.5012,1.507,1.5109,1.5135,1.5169,1.5208,1.5235,1.5271,1.53,1.5341,1.5346,1.5364,1.5387,1.5419,1.5439,1.5417,1.5465,1.5467,1.5452,1.5476,1.5471,1.5497,1.5472,1.5472,1.5473,0,1.4952,1.4994,1.5057,1.5109,1.5126,1.5157,1.5203,1.5238,1.5281,1.5299,1.5331,1.5352,1.5393,1.5389,1.5445,1.5429,1.545,1.5468,1.547,1.5476,1.547,1.5481,1.5507,1.551,1.548,1.5479,1.5479,0,1.4952,1.5025,1.5071,1.5093,1.5156,1.5176,1.5203,1.5246,1.5273,1.5313,1.533,1.5374,1.5398,1.5431,1.5462,1.5457,1.5514,1.5513,1.5529,1.5528,1.554,1.5539,1.5568,1.5555,1.5555,1.5555,1.5555,0,1.4983,1.502,1.5072,1.51,1.5142,1.5177,1.5217,1.5245,1.5282,1.5315,1.534,1.537,1.541,1.5444,1.5469,1.551,1.5521,1.5536,1.5542,1.5533,1.5531,1.5547,1.5546,1.5556,1.5555,1.5555,1.5555,0,1.4991,1.5027,1.5079,1.5134,1.5148,1.5176,1.5222,1.525,1.5278,1.5319,1.5331,1.5374,1.5416,1.545,1.5505,1.5521,1.5564,1.5572,1.555,1.5553,1.5566,1.5564,1.5607,1.5613,1.5596,1.5596,1.5596,0,1.5007,1.5036,1.5094,1.5118,1.5145,1.5184,1.5211,1.5246,1.5274,1.5324,1.5345,1.5389,1.5426,1.5491,1.5527,1.5568,1.5576,1.5588,1.5582,1.5572,1.5575,1.5572,1.5575,1.5588,1.5588,1.5588,1.5588,0,1.5033,1.5049,1.5088,1.5134,1.5166,1.5203,1.524,1.5258,1.53,1.5329,1.5372,1.5401,1.5456,1.5499,1.5544,1.557,1.5585,1.559,1.5595,1.5587,1.5573,1.5579,1.555,1.5589,1.5589,1.5589,1.5589,1.5589,1.5045,1.5071,1.5115,1.5158,1.519,1.5224,1.5252,1.5283,1.532,1.5369,1.5387,1.5431,1.5472,1.5534,1.556,1.5594,1.5595,1.5604,1.5606,1.5607,1.5605,1.5568,1.5602,1.5602,1.5602,1.5602,1.5602,0,1.507,1.51,1.5138,1.519,1.5223,1.5236,1.5277,1.5303,1.5342,1.5379,1.5415,1.5464,1.5505,1.5543,1.5585,1.5605,1.5613,1.5615,1.5613,1.5619,1.5602,1.5593,1.5607,1.5607,1.5607,1.5607,1.5607,1.5607,1.5087,1.5132,1.5153,1.5213,1.5242,1.5286,1.5309,1.5339,1.5369,1.5423,1.5457,1.5482,1.5519,1.5564,1.5602,1.5612,1.5626,1.5626,1.5637,1.5621,1.562,1.5619,1.561,1.5629,1.5629,1.5651,1.5651,1.5651]},{"header":{"parameterUnit":"m.s-1","parameterCategory":1,"la1":30.2991,"la2":30.254,"lo1":-89.0895,"lo2":-89.0444,"dy":0.0017,"dx":0.0017,"nx":28,"ny":28,"refTime":"2025-08-15T09:00:00:Z","depth":0,"parameterNumber":3,"parameterNumberName":"V-component_of_WINDS"},"data":[0,0,0,0,0,0,0,0,0,0,0,0,0,0,0,0,0,0,0,0,0,0,0,0,0,0,0,0,0,0,0,0,0,0,0,0,0,0,0,0,0,0,0,0,0,0,0,0,0,0,0,0,0,0,0,0,0,0,3.577,3.577,0,3.5754,3.5754,3.5754,3.5737,3.5737,3.5736,3.5736,3.572,3.5719,3.5719,0,0,0,0,0,0,0,0,0,0,0,0,0,3.5784,3.5784,3.577,3.577,3.5769,3.5754,3.5754,3.5754,3.5737,3.5737,3.5736,3.5736,3.572,3.5719,3.5719,0,0,0,0,0,0,0,0,0,0,0,0,0,3.5774,3.5784,3.577,3.5759,3.5758,3.5754,3.5754,3.5754,3.5737,3.5737,3.5736,3.5736,3.572,3.5719,3.5719,3.5724,0,0,3.5718,3.5718,0,0,0,0,0,0,0,0,3.5775,3.5773,3.5761,3.576,3.5759,3.5747,3.5753,3.5744,3.5737,3.5745,3.5736,3.5736,3.5729,3.5728,3.5726,3.5724,3.5723,3.5718,3.5718,3.5718,3.5718,0,0,0,0,0,0,0,3.5775,3.5774,3.5764,3.5761,3.5759,3.5755,3.5753,3.5751,3.5739,3.5744,3.5743,3.5741,3.5728,3.5726,3.5725,3.5723,3.5718,3.5718,3.5718,3.5717,3.5723,3.5723,0,0,0,0,0,0,3.5778,3.5775,3.5764,3.5763,3.5766,3.5755,3.5753,3.5751,3.5739,3.5737,3.5742,3.5741,3.5727,3.5726,3.5725,3.5729,3.5718,3.5717,3.5717,3.5723,3.5723,3.5724,0,0,0,0,0,0,3.5778,3.5777,3.5765,3.5769,3.5767,3.5755,3.5753,3.5751,3.5749,3.5737,3.5735,3.5742,3.5726,3.5725,3.5724,3.5728,3.5717,3.5717,3.5722,3.5723,3.5723,3.5739,0,0,0,0,0,0,3.5779,3.5777,3.5779,3.5769,3.5767,3.5765,3.5753,3.5751,3.5748,3.5747,3.5737,3.5735,3.5726,3.5725,3.5724,3.5728,3.5717,3.5722,3.5723,3.5723,3.5738,3.574,3.5742,0,0,0,0,0,3.5779,3.5784,3.5779,3.5778,3.5769,3.5765,3.5764,3.5754,3.5749,3.5751,3.5743,3.5735,3.5728,3.5725,3.5724,3.5728,3.5722,3.5722,3.5723,3.5737,3.574,3.5742,0,0,0,0,0,0,3.5796,3.5783,3.5777,3.5779,3.5774,3.5763,3.5765,3.5757,3.5753,3.5752,3.574,3.5737,3.5738,3.5733,3.5729,3.5732,3.5724,3.5724,3.5735,3.5737,3.5739,3.574,3.5717,0,0,0,0,0,3.58,3.5798,3.5787,3.579,3.5787,3.5776,3.5774,3.5767,3.5761,3.5758,3.5751,3.5745,3.5741,3.5739,3.5735,3.5737,3.5734,3.5739,3.5741,3.5743,3.5743,3.5743,3.5745,3.5726,3.5726,3.5726,0,0,3.5808,3.58,3.58,3.5793,3.5788,3.5786,3.5774,3.5773,3.5771,3.5758,3.5757,3.5751,3.5743,3.5744,3.5744,3.574,3.5748,3.5744,3.5745,3.5745,3.5744,3.5746,3.5747,3.5727,3.5727,3.5726,0,0,3.5821,3.5816,3.5817,3.5812,3.5804,3.5797,3.5797,3.5787,3.5783,3.5782,3.5771,3.5769,3.5763,3.5758,3.5754,3.5765,3.5757,3.5764,3.5774,3.5774,3.5775,3.5776,3.5779,3.5781,3.5765,3.5765,3.5765,0,3.5832,3.5829,3.5819,3.5818,3.5815,3.5803,3.5804,3.5799,3.579,3.5788,3.5784,3.5776,3.577,3.5769,3.5771,3.5769,3.5769,3.5765,3.5776,3.5777,3.5778,3.5781,3.5782,3.5766,3.5766,3.5766,3.5766,0,3.5842,3.584,3.5842,3.5834,3.5831,3.5831,3.5821,3.5819,3.5812,3.5805,3.5804,3.5796,3.579,3.5789,3.5783,3.5787,3.5784,3.5778,3.577,3.5781,3.5783,3.5784,3.5767,3.5767,3.5767,3.5766,0,0,3.5865,3.5851,3.5852,3.5848,3.5838,3.5837,3.5836,3.583,3.5828,3.5823,3.5821,3.5817,3.581,3.5806,3.5799,3.5799,3.5807,3.5793,3.5792,3.5795,3.581,3.5815,3.5816,3.5802,3.5802,3.5803,3.5811,0,3.5876,3.5875,3.5865,3.5866,3.5864,3.5852,3.5852,3.5845,3.5839,3.5836,3.5828,3.5825,3.5817,3.5815,3.5814,3.5806,3.581,3.5806,3.58,3.58,3.5802,3.5818,3.5822,3.5831,3.5812,3.5812,3.5812,0,3.5889,3.5884,3.5885,3.5875,3.5873,3.5873,3.5866,3.5864,3.5856,3.5851,3.5847,3.5838,3.5836,3.5829,3.5826,3.5823,3.582,3.5816,3.5816,3.5814,3.5806,3.5816,3.5833,3.5834,3.5813,3.5813,3.5813,0,3.5905,3.5898,3.5898,3.5895,3.5883,3.5883,3.5878,3.587,3.5867,3.5861,3.5859,3.5853,3.585,3.5845,3.5835,3.5831,3.5832,3.5824,3.5828,3.5828,3.5828,3.5828,3.5844,3.5827,3.5827,3.5827,3.5827,0,3.5918,3.5918,3.5905,3.5904,3.5904,3.5893,3.5894,3.5888,3.5881,3.5878,3.5868,3.5866,3.5853,3.585,3.5842,3.584,3.5838,3.5834,3.5832,3.5834,3.5835,3.5832,3.5831,3.5828,3.5828,3.5827,3.5827,0,3.5935,3.5926,3.5924,3.5914,3.5911,3.5911,3.5902,3.59,3.5893,3.589,3.5889,3.5878,3.5873,3.5862,3.5855,3.5849,3.5849,3.5845,3.5851,3.585,3.5853,3.5853,3.5868,3.5869,3.5852,3.5852,3.5852,0,3.5944,3.5944,3.5933,3.5931,3.5926,3.5923,3.592,3.5909,3.5906,3.5897,3.5897,3.5891,3.5886,3.5878,3.5869,3.5863,3.5859,3.5864,3.5858,3.586,3.5858,3.5858,3.5857,3.5865,3.5866,3.5866,3.5866,0,3.5959,3.5955,3.5951,3.5945,3.5941,3.5936,3.5931,3.5929,3.5917,3.5914,3.5909,3.5905,3.5897,3.5891,3.5883,3.5878,3.5869,3.5868,3.5869,3.5871,3.5874,3.5872,3.5855,3.5868,3.5868,3.5868,3.5867,3.5867,3.5972,3.5971,3.5964,3.5959,3.5954,3.5949,3.5947,3.5939,3.5935,3.5928,3.5922,3.5917,3.5909,3.5897,3.5892,3.5888,3.5884,3.5885,3.5885,3.5885,3.5886,3.5876,3.5886,3.5886,3.5886,3.5886,3.5886,0,3.5987,3.5981,3.5977,3.5969,3.5966,3.5959,3.5952,3.5949,3.5946,3.5939,3.5934,3.5928,3.5922,3.5912,3.5905,3.5903,3.5899,3.5902,3.5901,3.59,3.589,3.589,3.5905,3.5905,3.5905,3.5905,3.5905,3.5905,3.5994,3.5992,3.5987,3.5982,3.5976,3.5972,3.5968,3.5963,3.5958,3.5951,3.5946,3.594,3.5932,3.5924,3.5918,3.5915,3.5913,3.5916,3.5912,3.5903,3.5901,3.5899,3.5899,3.5916,3.5916,3.5923,3.5923,3.5923]}]]